Regional Weather Roundup
Issued by NWS

Home | Current Version | Previous Version | Graphics & Text | Print | Product List | Glossary On
Versions: 1 2 3 4 5 6 7 8 9 10 11 12 13 14 15 16 17 18 19 20 21 22 23 24 25 26 27 28 29 30 31 32 33 34 35 36 37 38 39 40 41 42 43 44 45 46 47 48 49 50
000
ASUS43 KIND 010809
RWRIN

WEATHER ROUNDUP FOR INDIANA
NATIONAL WEATHER SERVICE INDIANAPOLIS IN
400 AM EDT FRI AUG 01 2014

NOTE: "FAIR" INDICATES FEW OR NO CLOUDS BELOW 12,000 FEET WITH NO
SIGNIFICANT WEATHER AND/OR OBSTRUCTIONS TO VISIBILITY.

* - STATION DOES NOT REPORT WEATHER SUCH AS PRECIPITATION OR FOG.

+ - STATION NOT QUALITY CONTROLLED BY THE NATIONAL WEATHER SERVICE.
    USE DATA WITH CAUTION...ESPECIALLY DEWPOINT AND RELATIVE
    HUMIDITY OBSERVATIONS.

INZ001>003-010>013-019-020-010900-
NORTHWEST INDIANA

CITY           SKY/WX    TMP DP  RH WIND       PRES   REMARKS
GARY /AIRPORT/ PTCLDY    65  62  92 CALM      30.07R
KNOX *+        CLEAR     60  58  91 SW5       30.07R
LA PORTE +     PTCLDY    58  58 100 CALM      30.08R FOG
MICHIGAN CITY+ CLEAR     61  61 100 CALM      30.06S
MONTICELLO +   CLEAR     62  60  93 CALM      30.07S
RENSSELAER +   CLEAR     57  57 100 CALM      30.08R FOG
VALPARAISO     CLEAR     62  59  90 SW3       30.07S

$$

LMZ046-743>745-010900-
SOUTHERN LAKE MICHIGAN

STATION/POSITION TIME  TEMP WIND        PRES
                       AIR  DIR/SP/G
                 (UTC) (F)  (DEG/KT/KT) (MB)
MICHIGAN CITY    0800   68  180/  8/  9   N/A

$$

INZ004-005-014>016-021>024-010900-
NORTH CENTRAL INDIANA

CITY           SKY/WX    TMP DP  RH WIND       PRES   REMARKS
GOSHEN         CLEAR     63  59  87 CALM      30.07R
LOGANSPORT +   CLEAR     57  55  94 S3        30.08S
PERU/GRISSOM   CLEAR     60  60 100 S5        30.08S
ROCHESTER +    CLEAR     66  61  82 CALM      30.08S
SOUTH BEND     PTCLDY    65  60  84 SW3       30.07S
WARSAW +       CLEAR     63  59  88 CALM      30.07S

$$

INZ006>009-017-018-025>027-010900-
NORTHEAST INDIANA

CITY           SKY/WX    TMP DP  RH WIND       PRES   REMARKS
ANGOLA *+      MOCLDY    61  61 100 CALM      30.07S
AUBURN +       CLEAR     66  59  77 SW3       30.08S
FORT WAYNE     PTCLDY    62  58  86 SW5       30.08S
HUNTINGTON +   CLEAR     61  59  95 CALM      30.08S

$$

INZ028-029-035-036-043>045-051>053-010900-
WEST CENTRAL INDIANA

CITY           SKY/WX    TMP DP  RH WIND       PRES   REMARKS
GREENCASTLE +  CLEAR     59  59 100 CALM      30.09S FOG
LAFAYETTE      CLEAR     59  57  93 CALM      30.07S
TERRE HAUTE    FOG       58  56  93 CALM      30.08R VSB 3/4

$$

INZ030>032-037>040-046>048-054>057-064-065-010900-
CENTRAL INDIANA

CITY           SKY/WX    TMP DP  RH WIND       PRES   REMARKS
CP ATTERBURY + CLEAR     57  55  94 CALM      30.09S FOG
GREENWOOD *+   CLEAR     63  63 100 CALM      30.09
INDIANAPOLIS   CLEAR     66  61  84 CALM      30.08S
-EAGLE CREEK   CLEAR     63  60  90 CALM      30.08S
KOKOMO *+      CLEAR     59  57  94 CALM      30.09S
MARION +       CLEAR     56  56  97 CALM      30.09S
MT COMFORT *+  CLEAR     57 N/A N/A CALM      30.09S
SHELBYVILLE    CLEAR     61  58  90 NE5       30.08S FOG
ZIONSVILLE +   CLEAR     59  56  90 CALM      30.10S FOG

$$

INZ033-034-041-042-049-050-058-059-010900-
EAST CENTRAL INDIANA

CITY           SKY/WX    TMP DP  RH WIND       PRES   REMARKS
MUNCIE         CLEAR     60  55  83 CALM      30.09S

$$

INZ060-061-067>069-081>083-085>088-010900-
SOUTHWEST INDIANA

CITY           SKY/WX    TMP DP  RH WIND       PRES   REMARKS
EVANSVILLE     CLEAR     65  61  87 CALM      30.07S
WASHINGTON +   FOG       58  58 100 CALM      30.07S VSB 1/4

$$

INZ062-063-066-070>080-084-089>092-010900-
SOUTH CENTRAL AND SOUTHEAST INDIANA

CITY           SKY/WX    TMP DP  RH WIND       PRES   REMARKS
BLOOMINGTON    CLEAR     60  58  92 CALM      30.09S
SEYMOUR +      CLEAR     55  50  82 CALM      30.08

$$




USA.gov is the U.S. government's official web portal to all federal, state and local government web resources and services.